Myrtle Beach, SC

3:22 PM EDT on May 23, 2017 (GMT -0400)
Myrtle Beach International

Weather History for KMYR - May, 2013

Change the Weather History Date:

Friday, May 17, 2013

  Actual Average Record
Temperature  
Mean Temperature 75 °F -  
Max Temperature 84 °F 76 °F 92 °F (1990)
Min Temperature 66 °F 60 °F 53 °F (2006)
Cooling Degree Days 10    
Growing Degree Days 25 (Base 50)    
Moisture  
Dew Point 62 °F    
Average Humidity 69    
Maximum Humidity 83    
Minimum Humidity 45    
Precipitation  
Precipitation 0.00 in - - ()
Sea Level Pressure  
Sea Level Pressure 30.07 in    
Wind  
Wind Speed 9 mph (SW)    
Max Wind Speed 17 mph    
Max Gust Speed -    
Visibility 10 miles    
Events      
Averages and records for this station are not official NWS values.
T = Trace of Precipitation, MM = Missing Value Source: NWS Daily Summary

Daily Weather History Graph

Daily Weather History Graph

Search for Another Location

Airport or City:

Trip Planner

Search our weather history database for the weather conditions in past years. The results will help you decide how hot, cold, wet, or windy it might be!

Date:

Astronomy

May. 17, 2013 Rise Set
Actual Time 6:13 AM EDT 8:11 PM EDT
Civil Twilight 5:45 AM EDT 8:38 PM EDT
Nautical Twilight 5:12 AM EDT 9:12 PM EDT
Astronomical Twilight 4:36 AM EDT 9:48 PM EDT
Moon 12:35 PM EDT (5/17) 1:09 AM EDT (5/17)
Length of Visible Light 14h 53m
Length of Day
13h 57m
Waxing Crescent, 45% of the Moon is Illuminated
May 17
Waxing Crescent
May 18
First Quarter
May 25
Full
May 31
Last Quarter
Jun 8
New

Hourly Weather History & Observations

Time (EDT) Temp. Heat Index Dew Point Humidity Pressure Visibility Wind Dir Wind Speed Gust Speed Precip Events Conditions
12:15 AM 71.6 °F - 62.6 °F 73% 30.05 in 10.0 mi WSW 5.8 mph - N/A   Clear
12:35 AM 71.6 °F - 62.6 °F 73% 30.05 in 10.0 mi WSW 6.9 mph - N/A   Clear
12:55 AM 71.6 °F - 62.6 °F 73% 30.05 in 10.0 mi SW 5.8 mph - N/A   Clear
1:15 AM 71.6 °F - 62.6 °F 73% 30.05 in 10.0 mi WSW 5.8 mph - N/A   Clear
1:35 AM 71.6 °F - 62.6 °F 73% 30.05 in 10.0 mi SW 6.9 mph - N/A   Clear
1:55 AM 71.6 °F - 62.6 °F 73% 30.05 in 10.0 mi WSW 9.2 mph - N/A   Clear
2:15 AM 71.6 °F - 62.6 °F 73% 30.05 in 10.0 mi WSW 9.2 mph - N/A   Clear
2:35 AM 69.8 °F - 60.8 °F 73% 30.05 in 10.0 mi WSW 9.2 mph - N/A   Clear
2:55 AM 69.8 °F - 60.8 °F 73% 30.04 in 10.0 mi WSW 9.2 mph - N/A   Clear
3:15 AM 69.8 °F - 60.8 °F 73% 30.04 in 10.0 mi WSW 8.1 mph - N/A   Clear
3:35 AM 69.8 °F - 60.8 °F 73% 30.04 in 10.0 mi WSW 9.2 mph - N/A   Clear
3:55 AM 68.0 °F - 60.8 °F 78% 30.04 in 10.0 mi WSW 9.2 mph - N/A   Clear
4:15 AM 69.8 °F - 60.8 °F 73% 30.04 in 10.0 mi WSW 8.1 mph - N/A   Clear
4:35 AM 69.8 °F - 60.8 °F 73% 30.05 in 10.0 mi WSW 9.2 mph - N/A   Clear
4:55 AM 68.0 °F - 60.8 °F 78% 30.06 in 10.0 mi WSW 8.1 mph - N/A   Clear
5:15 AM 68.0 °F - 60.8 °F 78% 30.06 in 10.0 mi WSW 8.1 mph - N/A   Clear
5:35 AM 66.2 °F - 60.8 °F 83% 30.07 in 10.0 mi WSW 8.1 mph - N/A   Clear
5:50 AM 66.2 °F - 60.8 °F 83% 30.07 in 10.0 mi WSW 8.1 mph - N/A   Clear
6:45 AM 66.2 °F - 60.8 °F 83% 30.09 in 10.0 mi West 9.2 mph - N/A   Clear
7:45 AM 69.8 °F - 62.6 °F 78% 30.10 in 10.0 mi WSW 9.2 mph - N/A   Clear
9:45 AM 77.0 °F - 60.8 °F 57% 30.11 in 10.0 mi West 9.2 mph - N/A   Clear
10:45 AM 80.6 °F 81.5 °F 60.8 °F 51% 30.11 in 10.0 mi WSW 9.2 mph - N/A   Clear
11:45 AM 82.4 °F 83.4 °F 62.6 °F 51% 30.11 in 10.0 mi WSW 9.2 mph - N/A   Clear
12:45 PM 84.2 °F 84.4 °F 60.8 °F 45% 30.10 in 10.0 mi WSW 10.4 mph - N/A   Partly Cloudy
1:50 PM 82.4 °F 83.9 °F 64.4 °F 54% 30.08 in 10.0 mi South 13.8 mph - N/A   Partly Cloudy
2:45 PM 82.4 °F 84.6 °F 66.2 °F 58% 30.08 in 10.0 mi South 17.3 mph - N/A   Scattered Clouds
3:45 PM 80.6 °F 82.3 °F 64.4 °F 58% 30.07 in 10.0 mi South 17.3 mph - N/A   Clear
4:45 PM 80.6 °F 82.3 °F 64.4 °F 58% 30.06 in 10.0 mi South 17.3 mph - N/A   Partly Cloudy
5:50 PM 78.8 °F - 64.4 °F 61% 30.07 in 10.0 mi SSW 17.3 mph - N/A   Clear
6:50 PM 75.2 °F - 64.4 °F 69% 30.06 in 10.0 mi SSW 15.0 mph - N/A   Clear
7:50 PM 75.2 °F - 64.4 °F 69% 30.07 in 10.0 mi SSW 11.5 mph - N/A   Clear
8:45 PM 73.4 °F - 62.6 °F 69% 30.08 in 10.0 mi SSW 11.5 mph - N/A   Clear
9:50 PM 73.4 °F - 60.8 °F 65% 30.10 in 10.0 mi SW 9.2 mph - N/A   Clear
10:55 PM 71.6 °F - 57.2 °F 60% 30.12 in 10.0 mi SW 8.1 mph - N/A   Clear
11:15 PM 71.6 °F - 59.0 °F 64% 30.13 in 10.0 mi SW 6.9 mph - N/A   Clear
11:35 PM 71.6 °F - 60.8 °F 69% 30.13 in 10.0 mi SW 5.8 mph - N/A   Clear
11:55 PM 71.6 °F - 60.8 °F 69% 30.13 in 10.0 mi SW 4.6 mph - N/A   Clear